軌道要素
Epoch 2019 Dec. 23.0 TT = JDT 2458840.5
T 2019 Dec. 8.55304 TT Rudenko
q 2.0065419 (2000.0) P Q
z -1.1744789 Peri. 209.12395 -0.81468062 -0.19310925
+/-0.0000112 Node 308.14788 +0.56668004 -0.46536092
e 3.3566410 Incl. 44.05271 -0.12316341 -0.86379860
From 2845 observations 2018 Dec. 13-2020 Apr. 28, mean residual 0".4.
|